Terminal Aerodrome Forecast
Issued by NWS

Current Version | Previous Version | Graphics & Text | Print | Product List | Glossary On
Versions: 1 2 3 4 5 6 7 8 9 10 11 12 13 14 15 16 17 18 19 20 21 22 23 24 25 26 27 28 29 30 31
000
FTUS41 KRNK 251740
TAFLWB
TAF
KLWB 251740Z 2518/2618 27007KT P6SM OVC250
     FM260000 VRB03KT P6SM OVC040
     FM260500 04002KT 4SM -SN BR OVC025
     FM260800 02004KT 2SM -SN BR OVC015
     FM261300 00000KT 5SM -SN OVC020
     FM261600 VRB03KT P6SM OVC025=

USA.gov is the U.S. government's official web portal to all federal, state and local government web resources and services.